Weather in Biryusa

Russia / Irkutsk Oblast     55°59′27″N   97°53′31″E
temp.,
°C
wind,
m/s
gust,
m/s
humid.,
%
clouds,
%
prec.,
mm/h
press.,
hPa
HPBL,
m
28 february, sun
sun2823:00−20wsw2498100 0.1 1036118
02:00−22wsw2396100 0.2 103763
05:00−22sw2598100 0.1 1037139
08:00−22wsw3896100 0.2 1039380
11:00−20wsw4888100 0.1 1039925
14:00−18w4880100 0.1 10381296
17:00−17w3782100 0.1 10361124
20:00−20ssw1295100 0.1 103520
1 march, mon
mon123:00−19s1297100 0.1 103421
02:00−19ssw1297100 0.1 103329
05:00−19sw1297100 0.1 103020
08:00−23s119798 0.1 102920
11:00−18se129072 0.0 1026206
14:00−13se238484 0.0 1022507
17:00−12e2491100 0.1 1019404
20:00−14ene2497100 0.4 1018104
2 march, tue
tue223:00−15ne2397100 0.5 101689
02:00−16nne2497100 0.9 1015152
05:00−17n2498100 0.4 1015135
08:00−20n2498100 0.7 1016162
11:00−21nne2496100 0.1 1016211
14:00−17nne3490100 0.1 1017391
17:00−17nne4689100 0.0 1018488
20:00−21nne3794100 0.0 1021237
3 march, wed
wed323:00−25nne2595100 0.0 1023107
02:00−28nne2296100 0.0 102420
05:00−32ne129757 0.0 102619
08:00−33ne119757 0.0 102819
11:00−27ene23893 0.0 1028257
14:00−22ene24821 0.0 1028542
17:00−21ene348348 0.0 1027671
20:00−26ene229349 0.0 103120
4 march, thu
thu423:00−29ene229713 0.0 103219
02:00−31e22977 0.0 103319
05:00−32ese22987 0.0 103419
08:00−33ese229418 0.0 103620
11:00−27ese369020 0.0 1035276
14:00−20ese468810 0.0 1033458
17:00−18ese468752 0.0 1033532
20:00−22ese379450 0.0 1034161